Delta Virtual Airport Information Service

Detroit Metropolitan Wayne County Airport

ICAO: KDTW Country: United States
Latitude: 42.2124 Longitude: -83.3533
Latest Arrival : DALJUMP (KDFW-KDTW) Latest Departure : DAL1126 (1C) (KDTW-KLAS)


WX CaptureLIVE
Data provided by noaa.gov | Fetched at 13:29:19

METAR : KDTW 281753Z 09012G19KT 10SM FEW035 SCT180 BKN230 17/07 A2968 RMK AO2 PK WND 07027/1738 SLP050 T01670067 10167 20100 58029

TAF : KDTW 281723Z 2818/2924 09013G20KT P6SM SCT035 OVC150 FM290000 09013KT P6SM OVC150 FM290400 08013KT P6SM -SHRA OVC030 FM290700 09012KT 5SM RA BR OVC012 FM290900 09014KT 3SM RA BR OVC007 FM291500 08015G26KT 3SM RA BR OVC009


Runway Data for KDTW
Data provided by openaviationdata.com

Runway ID Mag Var Hdg Length Elevation Surface ILS Freq ILS Id ILS Slope
03L -6 34° 8499 ft 646 ft Asphalt -- -- --
03R -6 34° 10000 ft 646 ft Concrete 111.5 IHUU 3
04L -6 34° 10002 ft 646 ft Concrete 111.95 IHJT 3
04R -6 34° 12001 ft 646 ft Concrete 110.7 IDTW 3
09L -6 94° 8687 ft 646 ft Asphalt -- -- --
09R -6 95° 8486 ft 646 ft Concrete -- -- --
21L -6 214° 10000 ft 646 ft Concrete 111.5 IEJR 3
21R -6 214° 8499 ft 646 ft Asphalt -- -- --
22L -6 214° 12001 ft 646 ft Concrete 110.7 IDWC 2
22R -6 214° 10002 ft 646 ft Concrete 111.95 IJKI 3
27L -6 275° 8486 ft 646 ft Concrete 110.15 IEPA 3
27R -6 274° 8687 ft 646 ft Asphalt 108.5 IDMI 3

Detroit Metropolitan Wayne County Airport, United States
Use only for reference purposes



Not for navigational purposes.